Weather in Neshukay

Russia / Republic of Adygea     44°54′24″N   39°25′01″E
temp.,
°C
wind,
m/s
gust,
m/s
humid.,
%
clouds,
%
prec.,
mm/h
press.,
hPa
HPBL,
m
8 december, wed
wed800:00+7ene46795 0.0 1009100
03:00+6e35816 0.0 100971
06:00+6e46810 0.0 100886
09:00+7e47750 0.0 1008114
12:00+13e3450100 0.0 1008207
15:00+13ene485571 0.0 1007187
18:00+11se2262100 0.0 100920
21:00+11ese2257100 0.0 101019
9 december, thu
thu900:00+11sse4875100 0.3 1011129
03:00+10wsw3377100 0.3 101225
06:00+9wsw228794 0.0 101326
09:00+9w2284100 0.0 101527
12:00+12wnw2277100 0.0 1016388
15:00+12w237364 0.0 1017476
18:00+10wsw487898 0.0 1019333
21:00+9wsw597876 0.0 1021292
10 december, fri
fri1000:00+9sw5107691 0.0 1021337
03:00+9sw5983100 0.0 1022290
06:00+9w478299 0.0 1023205
09:00+9ssw128353 0.0 102457
12:00+11sse227219 0.0 1023412
15:00+12ese12689 0.0 1023530
18:00+9e46830 0.0 1023110
21:00+8e49860 0.0 1023170
11 december, sat
sat1100:00+7e48850 0.0 1022150
03:00+7e48855 0.0 1023139
06:00+6e4108634 0.0 1022173
09:00+7e51081100 0.0 1023233
12:00+11e5865100 0.0 1023328
15:00+11ene5967100 0.0 1023375
18:00+9ene51079100 0.0 1024247
21:00+8ene5118392 0.0 1025257
12 december, sun
sun1200:00+6ene511875 0.0 1025245
03:00+6e612875 0.0 1025296
06:00+5ene511880 0.0 1025276
09:00+5ene71383100 0.0 1025338
12:00+9ene7116584 0.0 1023460
15:00+11e7125996 0.0 1022488
18:00+8e81466100 0.0 1022369
21:00+7e71369100 0.0 1021355